Wetbulb
46.11 44.22 42.63 43.85 43.73 47.28 48.57 46.40 46.62 49.63 51.52 50.49 48.00 48.27 50.35 53.43 53.60 51.12 50.50 50.90 51.26 52.24 54.50 56.18 57.48 57.63 56.58 57.48 54.52 52.95 50.61 50.30 50.63 49.72 49.60 49.60 48.68 49.28 49.88 51.08 52.61 53.33 54.30 54.78
44.72 42.26 46.34 50.63 52.16 51.07 49.12 46.65 46.38 47.88 49.93 49.17 48.15 47.66 51.40 53.66 53.40 51.85 51.98 52.27 51.98 51.97 54.31 55.92 53.68 53.68 53.39 53.76 51.07 50.17 49.75 49.91 50.11 49.62 49.18 48.76 48.40 48.96 49.04 50.31 51.18 52.23 53.15 54.54
41.77 44.53 49.29 51.11 49.35 48.47 46.70 46.19 45.78 45.42 48.70 49.51 48.59 46.46 49.38 53.28 53.84 54.74 55.42 54.28 52.19 52.39 53.08 52.06 51.10 51.78 50.63 50.40 50.17 48.83 48.59 48.74 49.76 49.44 48.66 48.64 48.53 48.09 48.05 48.02 48.47 49.25 51.21 52.25
47.93 50.47 49.28 47.59 47.40 46.57 42.01 49.67 49.53 47.42 45.08 41.38 47.64 38.81 46.40 48.00 50.00 53.13 53.81 53.11 51.79 52.57 52.54 49.69 48.38 50.21 49.40 49.12 49.10 48.82 48.94 48.39 49.38 49.11 47.40 45.36 44.48 44.02 45.86 46.14 46.92 47.00 48.95 49.26
46.78 48.26 48.61 47.82 47.75 48.51 46.48 51.59 49.36 47.57 43.71 42.96 42.48 40.93 43.24 47.87 48.21 50.16 52.33 52.94 51.99 50.92 50.52 47.39 47.35 48.56 48.67 48.93 48.30 49.72 48.32 47.62 47.50 47.67 46.42 44.98 44.07 44.33 45.24 45.37 44.92 45.95 46.69 47.96
49.24 52.96 51.34 49.35 49.96 51.49 52.44 47.14 44.89 40.34 40.20 35.91 40.84 39.05 39.24 44.84 47.35 49.67 49.49 50.43 51.52 50.59 50.34 47.14 47.31 46.86 46.41 46.91 46.94 47.14 46.26 46.14 46.63 46.72 46.49 45.20 44.02 43.89 44.27 44.62 44.67 45.28 45.44 46.76
48.36 48.51 51.65 51.75 48.76 50.62 46.34 38.82 32.23 30.42 32.45 33.21 41.41 38.26 39.25 45.99 49.81 50.48 49.67 50.13 50.43 48.96 45.70 45.40 44.71 44.34 45.01 44.83 44.99 45.99 44.91 45.67 46.39 46.21 46.49 45.60 45.03 44.94 45.08 45.03 44.79 45.01 45.77 48.77
41.86 41.10 48.11 51.58 47.48 44.76 41.24 39.77 34.85 29.94 29.16 33.67 41.71 37.52 40.13 48.88 51.33 50.76 50.97 48.68 45.57 43.49 43.88 43.95 43.82 43.90 43.88 44.40 44.28 44.33 44.64 45.47 46.00 45.64 45.71 45.88 45.84 45.44 45.84 46.02 45.75 47.96 48.92 50.14
42.28 43.20 50.15 49.99 48.63 46.69 42.42 39.30 40.43 37.17 36.79 34.55 37.45 43.70 48.15 49.97 48.83 48.69 47.62 46.29 42.36 42.40 42.73 43.04 43.44 43.36 42.79 43.29 43.59 43.72 45.34 45.38 45.86 45.87 45.70 46.27 45.99 45.68 45.76 45.82 47.26 49.44 50.21 50.82
45.75 40.02 48.00 50.59 49.40 48.09 45.02 44.89 36.70 35.92 31.29 29.35 35.46 37.21 37.59 46.02 45.44 46.92 46.28 43.89 41.46 41.54 41.71 42.29 42.83 44.45 43.77 43.57 43.90 45.21 45.96 45.56 45.63 46.03 46.13 46.65 46.02 46.13 46.25 46.38 47.63 48.37 48.66 48.30
44.29 41.74 43.41 46.42 43.94 40.82 41.92 39.56 38.82 37.91 35.79 31.42 30.03 33.99 42.13 45.98 47.38 46.69 46.17 43.24 41.35 40.88 42.49 43.31 44.07 44.86 43.59 43.82 44.46 45.40 45.91 46.10 46.58 46.69 46.37 46.97 47.59 46.79 46.26 46.29 46.47 46.65 47.26 47.71
46.39 41.98 38.81 40.88 46.57 46.57 43.29 39.58 37.79 34.54 33.83 34.45 32.90 33.27 44.03 46.37 48.68 47.84 45.29 42.32 42.36 42.66 43.45 43.84 43.89 44.57 43.56 43.38 44.10 44.79 45.63 46.02 47.18 47.98 47.08 46.76 48.10 49.43 49.08 46.97 45.95 46.69 47.26 47.76
46.08 38.45 35.28 38.12 41.82 44.46 41.35 41.71 40.10 38.45 37.17 33.77 31.57 33.27 45.05 45.80 43.53 42.49 40.56 42.00 42.69 43.24 43.43 43.75 43.92 43.07 43.06 43.36 44.22 44.76 45.49 45.68 47.85 47.78 47.15 46.83 46.95 48.20 47.78 48.34 47.67 47.01 47.49 47.36
50.26 40.47 37.54 34.89 37.29 40.96 40.60 42.63 42.39 38.07 33.63 35.02 35.65 38.08 41.66 42.62 40.88 39.60 41.30 42.33 43.15 43.43 43.95 43.85 42.86 41.33 42.33 43.74 44.24 45.47 46.23 46.47 46.93 48.03 47.50 48.12 47.88 48.65 48.76 49.05 48.99 48.60 47.64 47.67
45.33 38.78 39.85 41.49 43.26 43.38 41.96 41.24 41.66 40.02 39.35 35.03 38.01 38.70 40.35 41.70 40.54 40.04 41.33 42.30 43.21 43.05 43.57 43.54 41.31 41.84 42.20 43.20 45.01 46.26 46.97 47.34 47.32 47.82 48.55 48.98 49.14 50.17 49.79 50.14 50.18 49.27 49.91 49.80
44.77 39.54 40.72 41.20 44.64 44.30 41.04 42.23 42.14 41.44 40.47 39.44 39.06 37.96 41.21 41.47 41.28 40.65 41.92 42.59 42.96 43.22 44.17 42.61 42.84 43.51 43.15 44.03 45.21 46.00 46.81 47.32 47.34 47.57 48.34 49.74 49.59 49.78 48.68 49.64 50.13 50.09 49.71 49.88
43.15 41.90 40.42 38.38 44.31 43.32 38.61 42.75 41.46 41.36 42.07 40.17 36.36 39.88 41.71 40.46 40.85 39.97 40.72 42.76 43.78 43.20 42.92 42.99 43.38 43.58 43.70 44.28 45.41 45.54 46.55 47.52 47.30 47.57 48.73 49.69 50.41 49.53 49.41 49.18 48.61 48.45 47.97 47.52
45.57 45.93 43.69 40.66 42.43 32.67 43.90 47.64 45.72 42.95 43.34 43.89 43.83 43.10 42.18 41.59 41.56 41.90 42.22 42.62 42.74 43.03 43.61 43.64 43.75 43.69 44.17 45.00 45.64 46.40 47.59 47.28 47.28 47.99 48.74 50.16 49.94 49.64 49.50 49.44 48.52 48.25 48.04 47.56
47.88 43.50 40.57 38.39 38.99 41.97 44.83 46.11 44.96 42.17 40.46 44.10 43.17 42.58 42.35 42.58 42.18 40.82 43.46 43.64 43.09 43.12 44.02 44.08 44.14 43.80 44.44 45.17 46.14 46.70 46.66 46.45 48.04 48.51 49.24 49.56 49.73 49.26 48.09 48.41 49.52 49.28 48.68 48.64
47.08 46.93 43.85 42.04 35.26 33.02 41.64 47.07 49.00 46.16 36.22 44.53 44.33 42.39 41.52 41.53 36.33 38.73 42.80 44.85 44.77 45.01 44.76 44.92 44.88 44.69 45.16 45.72 46.46 46.09 46.28 47.42 47.84 48.99 49.93 49.86 49.44 48.77 48.55 46.56 47.87 50.59 50.65 49.18
41.28 43.55 41.82 39.50 38.54 40.78 46.20 47.23 47.49 33.03 35.28 43.84 44.38 43.18 41.41 39.47 40.78 42.31 44.42 44.68 45.65 45.08 45.01 45.70 45.06 44.18 44.98 45.72 46.69 46.46 46.67 47.07 49.22 50.17 50.29 50.03 49.57 48.77 46.32 43.22 45.60 46.35 49.21 49.41
39.94 38.64 38.04 38.62 35.54 33.65 47.41 45.56 37.84 42.62 44.30 44.53 44.20 43.15 42.47 42.80 43.78 43.53 44.23 44.71 45.37 45.16 45.54 45.87 44.33 44.57 45.88 46.61 46.76 46.77 46.88 49.34 49.36 50.04 49.54 49.43 49.99 49.74 47.25 42.79 43.22 43.87 45.33 46.30
39.50 42.07 40.03 39.42 38.71 45.89 45.83 44.92 46.89 45.95 44.43 43.96 43.11 44.23 44.64 43.76 43.31 43.91 43.12 44.03 45.40 45.54 44.99 45.71 45.00 45.20 46.12 46.72 47.43 46.85 48.01 49.31 49.99 48.94 49.69 50.37 50.96 51.19 50.52 46.25 42.72 41.45 40.69 41.82
45.52 46.07 42.02 43.25 44.60 45.17 46.26 46.97 46.84 46.60 44.58 45.84 45.71 45.65 45.38 44.15 44.41 43.72 43.61 44.14 44.73 45.24 45.30 45.88 46.05 45.65 46.47 47.56 48.27 48.18 49.02 50.14 49.75 49.03 49.15 49.87 49.76 49.60 50.58 48.83 42.74 39.68 38.94 38.00
44.47 45.88 42.78 41.08 43.95 46.26 47.79 48.40 47.83 48.22 47.88 47.79 47.09 46.77 46.23 45.19 44.51 43.84 44.41 44.75 45.22 45.24 45.77 45.91 45.80 45.82 46.74 47.78 48.53 49.11 49.74 50.30 49.57 49.44 48.85 49.65 49.52 50.38 49.96 48.86 47.06 42.77 40.47 39.19
45.32 45.18 41.39 40.19 46.54 46.31 49.58 48.86 48.78 47.51 48.37 47.56 47.76 46.76 46.97 46.44 44.91 45.56 45.16 45.88 46.14 45.75 45.70 45.82 46.26 46.42 47.30 47.92 48.69 49.67 50.43 50.30 50.05 49.15 48.52 48.59 49.25 49.92 48.93 47.88 47.62 41.09 39.39 37.35
MSLP
1010.17 1011.48 1012.82 1013.72 1014.39 1015.61 1017.08 1019.26 1020.89 1021.93 1022.19 1022.41 1023.63 1024.15 1024.63 1024.83 1025.32 1025.89 1026.10 1026.37 1026.47 1026.46 1026.38 1026.18 1026.10 1025.92 1025.86 1025.97 1026.31 1026.67 1026.66 1026.65 1026.44 1026.30 1026.16 1025.95 1025.88 1025.34 1024.76 1024.46 1024.12 1023.74 1023.28 1022.92
1010.74 1011.45 1011.90 1012.66 1014.08 1015.41 1017.54 1019.50 1021.45 1022.50 1022.76 1023.00 1024.14 1024.55 1024.83 1024.96 1025.27 1025.67 1025.84 1026.22 1026.41 1026.44 1026.34 1026.31 1026.34 1026.46 1026.50 1026.92 1027.16 1027.19 1027.04 1026.98 1026.89 1026.79 1026.62 1026.45 1026.06 1025.51 1025.23 1024.89 1024.39 1024.04 1023.57 1023.07
1011.32 1011.60 1011.55 1012.37 1014.17 1015.23 1017.11 1018.48 1020.59 1021.60 1023.14 1023.77 1023.89 1024.51 1024.63 1024.80 1024.96 1025.21 1025.46 1025.82 1026.23 1026.46 1026.58 1026.71 1026.96 1027.06 1027.22 1027.36 1027.55 1027.51 1027.50 1027.38 1027.20 1026.93 1026.51 1026.14 1025.82 1025.68 1025.39 1025.13 1024.74 1024.31 1023.79 1023.30
1011.56 1011.57 1011.71 1012.42 1013.46 1014.67 1016.54 1017.47 1019.49 1020.91 1022.21 1023.48 1023.89 1024.56 1024.54 1024.66 1024.72 1025.01 1025.40 1025.79 1026.28 1026.60 1026.97 1027.33 1027.38 1027.49 1027.76 1027.85 1027.76 1027.76 1027.74 1027.51 1027.06 1026.95 1026.88 1027.01 1027.02 1026.68 1026.07 1025.68 1025.26 1024.67 1024.07 1023.57
1012.14 1011.98 1012.19 1012.75 1013.59 1014.52 1017.03 1018.26 1019.75 1021.38 1022.30 1023.18 1024.24 1024.61 1024.46 1024.50 1024.63 1024.61 1025.37 1025.82 1026.39 1026.94 1027.36 1027.80 1027.94 1028.24 1028.33 1028.09 1028.09 1028.02 1027.88 1027.71 1027.60 1027.42 1027.48 1027.37 1027.15 1026.84 1026.32 1025.81 1025.38 1024.83 1024.22 1023.67
1011.98 1011.90 1012.26 1012.78 1013.81 1014.22 1017.22 1019.06 1020.84 1022.24 1023.22 1024.12 1024.25 1024.57 1024.54 1024.61 1024.43 1024.88 1025.70 1026.14 1026.65 1027.23 1027.71 1028.26 1028.50 1028.65 1028.61 1028.57 1028.47 1028.36 1028.27 1028.14 1027.97 1027.83 1027.68 1027.55 1027.35 1026.88 1026.45 1025.99 1025.46 1024.90 1024.30 1023.61
1012.92 1012.98 1012.76 1012.82 1014.53 1016.30 1016.79 1018.90 1021.74 1023.25 1023.80 1024.39 1024.34 1024.61 1024.31 1024.13 1024.29 1024.81 1025.69 1026.28 1027.00 1027.56 1028.20 1028.72 1029.06 1029.17 1029.16 1029.07 1028.92 1028.61 1028.60 1028.50 1028.28 1028.03 1027.76 1027.60 1027.19 1026.79 1026.50 1026.09 1025.59 1024.98 1024.45 1023.60
1014.20 1013.96 1013.75 1013.57 1014.20 1015.25 1016.80 1017.92 1019.84 1021.92 1023.73 1024.56 1024.51 1024.67 1024.31 1024.28 1024.50 1025.03 1025.84 1026.96 1027.74 1028.46 1029.02 1029.36 1029.54 1029.58 1029.54 1029.45 1029.20 1029.05 1028.85 1028.72 1028.38 1028.15 1027.90 1027.54 1027.08 1026.76 1026.43 1026.13 1025.49 1024.92 1024.50 1023.97
1014.79 1014.78 1014.33 1014.31 1014.60 1015.43 1016.79 1018.13 1019.49 1021.59 1023.74 1024.57 1024.89 1024.75 1024.54 1024.84 1025.28 1025.70 1026.57 1027.54 1028.49 1029.11 1029.59 1029.70 1029.65 1029.80 1029.82 1029.58 1029.47 1029.40 1029.00 1028.77 1028.42 1028.26 1027.92 1027.52 1027.07 1026.78 1026.47 1025.98 1025.38 1024.98 1024.40 1023.97
1015.46 1015.59 1015.48 1015.13 1015.10 1015.78 1016.70 1018.49 1019.98 1021.89 1024.12 1025.08 1025.15 1025.04 1024.94 1025.45 1025.91 1026.30 1027.04 1027.88 1028.76 1029.40 1029.74 1029.78 1029.89 1029.90 1029.82 1029.72 1029.66 1029.32 1029.04 1028.86 1028.58 1028.27 1027.99 1027.56 1027.14 1026.78 1026.43 1026.00 1025.60 1025.20 1024.75 1024.34
1016.07 1016.42 1016.86 1016.22 1016.98 1017.42 1017.84 1019.06 1020.96 1022.55 1024.22 1024.87 1025.51 1025.19 1024.82 1025.06 1025.54 1026.12 1026.79 1027.89 1028.87 1029.49 1029.72 1029.92 1029.91 1029.91 1029.92 1029.91 1029.75 1029.44 1029.15 1028.95 1028.57 1028.27 1027.89 1027.48 1027.06 1026.65 1026.33 1026.09 1025.90 1025.57 1025.05 1024.56
1017.05 1017.81 1018.33 1018.18 1018.03 1018.00 1018.75 1020.12 1021.32 1022.90 1024.67 1025.28 1025.46 1025.34 1025.01 1024.97 1025.30 1025.90 1027.12 1028.06 1028.90 1029.25 1029.56 1029.77 1029.86 1029.98 1030.12 1030.10 1029.85 1029.59 1029.28 1028.99 1028.56 1028.23 1027.87 1027.47 1027.03 1026.61 1026.31 1026.12 1025.96 1025.62 1025.18 1024.81
1017.60 1019.16 1019.62 1019.25 1019.09 1018.96 1020.07 1021.08 1021.98 1022.95 1024.10 1025.48 1025.83 1025.71 1025.05 1025.39 1026.13 1026.91 1027.75 1028.41 1028.97 1029.28 1029.56 1029.75 1029.97 1030.15 1030.31 1030.19 1029.95 1029.64 1029.26 1028.93 1028.46 1028.12 1027.83 1027.38 1026.93 1026.62 1026.42 1026.18 1025.94 1025.57 1025.22 1024.97
1018.00 1020.18 1020.55 1020.73 1020.44 1020.65 1021.28 1021.84 1022.30 1023.06 1024.72 1025.57 1025.79 1025.79 1025.69 1026.31 1027.16 1027.77 1028.14 1028.54 1028.91 1029.25 1029.44 1029.78 1030.05 1030.29 1030.37 1030.18 1029.94 1029.63 1029.21 1028.85 1028.48 1028.09 1027.74 1027.29 1026.96 1026.68 1026.40 1026.16 1025.81 1025.50 1025.27 1025.05
1019.43 1021.61 1021.60 1021.73 1021.62 1021.51 1022.32 1022.79 1023.31 1023.98 1024.76 1025.38 1025.67 1026.05 1026.45 1026.82 1027.36 1027.98 1028.48 1028.84 1028.92 1029.13 1029.40 1029.74 1030.15 1030.31 1030.36 1030.18 1029.88 1029.57 1029.15 1028.79 1028.46 1028.08 1027.67 1027.32 1027.03 1026.69 1026.41 1026.09 1025.83 1025.43 1025.16 1025.03
1020.94 1022.53 1022.51 1023.06 1022.82 1022.61 1023.08 1023.52 1023.85 1024.39 1024.90 1025.35 1025.83 1026.39 1026.88 1027.24 1027.63 1028.26 1028.59 1028.69 1028.88 1029.08 1029.36 1029.70 1030.01 1030.22 1030.32 1030.17 1029.93 1029.57 1029.19 1028.76 1028.42 1028.05 1027.74 1027.38 1027.00 1026.58 1026.38 1026.11 1025.87 1025.62 1025.45 1025.28
1022.40 1023.44 1024.17 1024.16 1023.57 1023.31 1023.96 1024.54 1024.67 1024.92 1025.34 1025.81 1026.31 1026.84 1027.13 1027.65 1028.09 1028.52 1028.69 1028.74 1028.82 1029.03 1029.33 1029.68 1029.98 1030.16 1030.21 1030.05 1029.87 1029.54 1029.17 1028.73 1028.47 1028.16 1027.63 1027.27 1026.97 1026.66 1026.41 1026.18 1026.01 1025.87 1025.73 1025.64
1023.30 1023.58 1024.83 1025.01 1024.55 1024.52 1024.90 1024.63 1024.70 1025.13 1025.83 1026.22 1026.62 1027.06 1027.64 1028.03 1028.32 1028.49 1028.63 1028.68 1028.87 1029.13 1029.36 1029.61 1029.87 1030.03 1029.94 1029.84 1029.70 1029.43 1029.05 1028.79 1028.55 1028.21 1027.77 1027.26 1026.98 1026.73 1026.52 1026.31 1026.16 1026.04 1025.91 1025.83
1023.33 1023.95 1025.12 1025.37 1025.74 1025.61 1024.98 1024.91 1025.05 1025.44 1026.47 1026.76 1027.05 1027.55 1028.12 1028.51 1028.67 1028.62 1028.49 1028.66 1028.86 1029.05 1029.27 1029.53 1029.67 1029.82 1029.79 1029.68 1029.53 1029.39 1029.08 1028.91 1028.53 1028.14 1027.70 1027.37 1027.08 1026.88 1026.70 1026.45 1026.25 1026.14 1026.07 1025.97
1024.16 1024.41 1025.14 1026.05 1026.26 1026.35 1025.98 1025.26 1024.84 1025.27 1026.73 1027.09 1027.32 1027.79 1028.44 1028.87 1029.10 1028.82 1028.46 1028.60 1028.77 1028.98 1029.22 1029.42 1029.53 1029.69 1029.71 1029.45 1029.39 1029.32 1029.07 1028.81 1028.48 1028.07 1027.67 1027.38 1027.18 1026.97 1026.82 1026.56 1026.33 1026.15 1026.05 1026.03
1025.83 1026.10 1026.51 1026.67 1026.73 1026.66 1026.07 1025.39 1025.16 1026.07 1027.71 1027.21 1027.42 1027.77 1028.48 1028.96 1028.77 1028.63 1028.53 1028.64 1028.76 1028.97 1029.15 1029.29 1029.48 1029.59 1029.53 1029.36 1029.31 1029.13 1028.88 1028.58 1028.29 1027.97 1027.67 1027.38 1027.05 1026.81 1026.67 1026.52 1026.37 1026.29 1026.09 1026.04
1027.33 1027.33 1027.58 1027.36 1027.30 1027.11 1026.19 1025.74 1026.31 1027.28 1027.09 1027.23 1027.43 1027.70 1028.09 1028.31 1028.36 1028.53 1028.64 1028.72 1028.85 1028.96 1029.06 1029.12 1029.34 1029.27 1029.14 1029.09 1029.14 1028.91 1028.66 1028.27 1028.08 1027.86 1027.56 1027.22 1026.92 1026.67 1026.49 1026.45 1026.36 1026.33 1026.27 1026.23
1027.89 1027.88 1027.98 1027.89 1027.66 1027.13 1026.75 1026.71 1026.72 1026.98 1027.08 1027.09 1027.31 1027.45 1027.87 1028.20 1028.36 1028.48 1028.55 1028.64 1028.69 1028.82 1028.94 1028.93 1029.02 1028.96 1028.78 1028.70 1028.81 1028.76 1028.32 1028.13 1027.93 1027.71 1027.42 1027.11 1026.86 1026.49 1026.31 1026.30 1026.27 1026.35 1026.42 1026.34
1028.29 1027.87 1028.10 1028.07 1027.66 1027.31 1027.09 1026.96 1027.00 1027.03 1027.11 1026.97 1027.14 1027.32 1027.64 1027.95 1028.19 1028.37 1028.45 1028.47 1028.55 1028.63 1028.71 1028.72 1028.74 1028.72 1028.58 1028.38 1028.40 1028.43 1028.24 1028.09 1027.94 1027.68 1027.37 1026.96 1026.63 1026.30 1026.09 1026.06 1026.12 1026.27 1026.29 1026.24
1029.27 1028.67 1028.76 1028.66 1028.19 1027.67 1027.56 1027.41 1027.25 1026.87 1026.73 1027.16 1027.20 1027.22 1027.32 1027.71 1027.87 1028.16 1028.28 1028.33 1028.35 1028.39 1028.36 1028.42 1028.51 1028.44 1028.25 1028.12 1028.01 1027.92 1027.94 1027.91 1027.78 1027.55 1027.24 1026.82 1026.46 1026.15 1025.87 1025.81 1025.77 1025.82 1025.75 1025.78
1029.80 1029.72 1029.76 1029.65 1029.25 1028.89 1028.71 1028.17 1027.71 1027.54 1027.17 1026.90 1027.38 1027.16 1027.15 1027.34 1027.40 1027.52 1027.75 1027.85 1028.05 1028.16 1028.11 1028.14 1028.07 1028.12 1027.86 1027.76 1027.61 1027.48 1027.48 1027.51 1027.53 1027.35 1027.03 1026.61 1026.35 1025.94 1025.71 1025.59 1025.33 1025.30 1025.38 1025.48
Wind_Speed
3 6 3 11 6 6 11 9 12 5 4 8 6 5 4 2 4 4 4 3 3 3 3 3 5 5 4 4 6 7 7 7 5 4 3 3 3 3 3 5 7 7 6 6
7 2 4 11 14 17 16 19 9 5 4 6 3 4 2 2 2 5 5 4 4 3 3 3 6 6 7 7 7 6 6 7 5 3 2 2 3 3 2 4 7 8 9 7
4 4 1 9 10 10 5 8 12 10 8 6 9 2 2 1 4 5 5 3 3 3 3 4 6 6 6 7 6 7 6 6 3 4 3 4 3 3 3 6 5 8 9 9
6 5 7 6 5 5 0 10 14 20 8 6 4 2 4 4 4 5 4 1 4 3 1 5 5 6 6 5 5 6 5 5 6 7 6 5 2 3 3 3 4 6 8 8
2 3 5 6 2 4 3 12 13 9 5 7 2 1 3 4 4 4 5 5 5 2 3 5 7 5 4 6 6 5 6 7 7 6 5 4 4 3 3 4 7 6 7 7
2 2 3 3 5 14 19 14 8 6 3 3 3 3 3 4 5 1 2 4 4 3 5 6 5 5 6 6 6 6 7 5 6 6 6 6 6 7 6 6 6 6 5 5
6 4 6 3 10 11 7 6 3 3 2 3 2 3 5 5 4 4 7 7 2 4 6 5 5 5 5 6 6 6 7 6 7 6 6 6 6 5 5 6 4 7 5 4
3 6 7 6 1 6 2 6 6 5 3 3 2 3 4 1 5 4 5 5 6 6 5 5 4 4 6 6 7 7 6 6 6 6 7 6 6 4 4 4 5 4 4 5
3 2 3 6 3 1 2 4 3 8 3 3 2 1 2 4 3 3 6 6 6 5 4 3 5 4 4 6 7 6 7 6 6 6 6 6 6 5 5 6 5 4 5 5
1 3 3 5 5 7 7 4 2 4 4 2 2 3 5 4 5 5 6 7 6 4 4 2 3 3 4 4 5 5 5 5 5 6 5 5 5 5 5 5 7 7 6 5
2 4 6 4 6 3 5 4 7 6 3 5 2 5 4 9 10 11 7 7 7 6 4 1 2 3 5 5 5 6 6 6 6 6 5 5 5 5 4 4 5 5 5 6
2 5 3 2 5 2 4 3 3 6 1 2 3 5 5 7 9 6 6 7 7 5 4 1 2 3 5 5 6 6 5 6 5 5 5 5 5 5 5 5 5 5 5 4
2 4 3 7 7 7 6 4 3 5 4 2 3 5 3 5 7 5 7 8 6 4 2 2 2 4 4 5 5 6 6 6 6 5 5 5 5 5 5 5 4 4 5 5
8 4 4 6 3 2 6 6 4 5 5 2 2 4 3 3 5 4 7 7 5 3 2 1 2 4 5 5 5 6 6 5 6 5 4 4 5 5 5 4 4 4 4 4
6 6 4 8 10 14 9 8 10 6 2 4 2 1 4 4 5 4 6 4 4 3 3 2 1 4 4 5 5 5 5 5 5 5 5 5 5 4 4 4 4 4 4 3
5 3 3 8 9 14 13 10 7 6 4 4 5 2 3 2 5 5 5 4 3 3 3 2 3 5 4 5 5 5 5 5 5 5 5 5 5 5 4 4 5 4 4 4
5 4 5 2 5 2 7 5 3 3 4 3 5 3 2 1 2 4 4 3 3 1 2 3 4 3 4 5 5 5 6 5 5 5 5 5 5 5 5 4 3 4 4 4
4 6 2 2 5 4 1 2 4 5 4 5 3 2 3 0 1 2 3 2 3 2 3 3 3 4 5 4 5 5 5 5 5 5 5 6 5 5 5 4 4 3 2 2
5 4 4 4 3 3 3 6 4 0 4 4 3 2 2 2 2 4 4 2 3 3 2 3 3 3 4 5 5 5 5 5 5 5 5 5 5 5 5 5 4 2 2 2
6 6 5 3 4 3 3 9 7 5 4 5 3 3 3 1 3 5 3 3 3 2 2 3 4 3 4 5 3 4 4 4 5 5 5 5 4 4 4 4 4 2 1 1
5 5 3 2 4 3 6 9 3 8 6 3 1 3 5 4 5 3 2 3 2 3 4 3 3 5 5 5 3 4 3 4 4 5 5 4 4 4 3 3 2 3 3 2
3 2 3 3 5 4 7 7 7 6 3 2 2 2 5 7 6 2 5 4 4 5 4 4 4 5 5 5 3 5 4 4 4 4 4 5 5 3 3 3 3 2 3 3
4 2 3 3 5 3 3 2 2 2 2 3 2 3 3 4 5 4 4 5 5 5 4 3 4 5 5 5 4 5 5 4 5 4 5 5 5 5 4 3 3 2 2 2
6 3 4 4 4 3 4 5 2 2 4 4 4 3 4 5 5 6 5 5 5 4 5 3 4 5 6 4 4 5 5 4 4 5 5 5 5 6 4 2 2 2 1 0
3 5 3 2 3 4 6 4 5 3 6 6 3 4 7 5 6 6 5 6 6 6 4 4 5 5 6 5 5 5 4 4 5 4 5 5 3 4 4 3 3 4 4 4
4 4 3 2 6 3 5 10 9 8 5 7 3 6 6 7 8 5 7 6 5 6 5 5 6 6 7 5 6 5 4 4 4 5 4 4 4 4 3 4 4 7 9 8
Wind_Direction
7 77 185 196 194 94 98 88 112 124 85 96 85 104 115 275 99 125 154 177 212 260 293 309 321 337 344 59 51 34 28 7 24 1 355 340 316 302 327 349 341 341 336 350
24 5 288 87 110 107 106 118 114 43 66 90 107 98 205 209 149 194 173 204 215 255 329 358 27 28 34 43 44 33 24 18 15 4 317 288 298 309 305 338 337 341 336 336
128 279 122 120 131 124 170 128 162 142 114 64 143 104 121 314 158 184 167 164 199 254 293 22 12 34 52 57 38 36 19 3 345 352 342 351 345 327 337 348 334 334 335 337
81 337 95 73 78 91 281 136 140 140 137 157 178 197 211 180 256 186 193 169 203 232 33 44 44 47 50 44 36 27 11 359 8 7 15 12 328 311 302 306 305 317 325 325
142 71 72 73 266 127 113 124 128 110 84 106 216 230 138 115 252 242 194 213 213 225 56 79 64 67 38 31 20 15 9 13 1 11 13 351 337 307 304 314 326 320 318 314
83 39 80 177 50 109 123 91 46 40 74 66 193 156 257 183 217 128 153 214 207 221 105 95 76 49 33 14 13 4 5 3 1 355 348 354 339 324 331 332 332 327 321 309
6 356 327 81 94 130 80 114 75 315 8 216 183 102 242 234 238 181 179 215 190 91 111 102 70 39 15 8 356 359 12 350 348 346 351 335 324 324 328 327 319 332 335 332
94 344 357 344 110 176 172 156 155 238 194 205 20 208 248 2 95 125 148 102 91 88 89 99 65 30 6 351 358 358 351 334 350 351 340 325 341 339 324 318 325 320 319 321
105 145 266 51 30 78 163 51 141 101 42 89 229 180 341 88 90 125 142 126 125 116 118 95 39 17 343 359 352 336 339 334 335 338 335 332 340 345 331 328 315 329 328 333
126 104 2 321 32 26 93 147 42 24 139 164 264 289 235 194 213 211 196 166 146 124 115 77 8 1 355 358 332 331 352 338 321 330 318 325 322 333 334 335 348 343 339 343
52 82 308 49 26 319 356 20 57 111 97 150 165 266 220 203 200 210 202 156 147 150 171 209 358 15 2 342 337 327 346 332 331 330 314 321 322 331 351 356 342 336 333 356
12 124 88 128 311 63 70 59 92 112 205 56 123 281 335 234 214 196 135 137 143 163 168 131 25 355 349 335 332 329 330 331 324 316 315 319 316 326 353 2 344 338 357 1
142 16 58 357 355 7 51 14 93 92 80 42 97 282 356 51 58 47 115 133 141 152 164 38 7 0 333 324 325 323 328 321 327 320 321 334 345 343 352 340 342 349 359 11
83 63 149 185 194 147 66 17 33 85 69 180 228 292 315 24 80 105 135 135 153 166 177 214 9 321 311 314 318 320 323 327 326 326 343 340 343 334 335 333 345 352 354 360
83 50 44 47 78 78 71 55 42 60 151 97 285 291 338 320 167 160 133 147 161 187 212 221 271 294 302 315 320 325 326 331 331 338 346 349 337 338 347 339 348 343 350 355
20 121 29 52 76 74 62 39 45 34 22 56 18 345 280 31 111 133 154 173 193 223 221 272 274 294 303 307 313 319 323 328 332 328 332 337 336 342 348 333 352 350 13 28
64 95 30 205 326 328 34 1 35 59 29 350 32 306 190 41 131 158 188 207 254 240 250 261 261 279 287 293 308 315 313 318 329 329 324 342 345 354 0 7 23 30 34 34
126 104 150 108 347 27 250 2 88 100 45 17 21 327 354 323 94 178 215 237 280 255 263 261 265 278 281 289 303 308 317 329 327 326 332 341 359 357 358 26 33 22 36 36
49 101 83 105 78 297 50 357 332 61 24 347 340 347 58 72 38 296 214 217 223 210 238 236 240 248 280 294 303 315 326 334 322 330 340 345 347 357 0 14 356 10 14 13
40 84 86 357 84 49 299 320 319 137 19 344 329 247 191 133 7 273 237 195 224 228 236 245 251 264 281 288 310 311 322 321 321 321 323 333 341 343 351 341 345 321 37 355
354 21 74 47 89 23 316 313 357 59 256 328 272 236 172 205 208 256 228 198 211 225 250 250 255 260 270 290 322 296 309 292 305 309 316 332 341 342 15 334 352 339 346 345
40 33 23 41 56 359 348 1 77 227 274 277 311 252 218 242 279 247 223 232 233 252 268 245 250 265 273 275 297 279 285 284 305 305 314 323 321 315 325 356 342 2 9 11
32 116 148 131 197 244 302 15 359 170 251 279 262 260 231 223 230 218 242 242 238 240 259 240 235 274 278 263 233 271 265 301 311 316 321 318 324 321 305 291 324 354 4 344
345 25 71 70 327 338 332 336 306 274 285 277 248 227 194 239 266 257 253 249 236 244 240 241 253 265 276 257 245 238 284 302 302 306 310 314 321 322 327 306 238 222 232 280
275 354 352 353 333 330 6 314 286 217 243 284 282 234 226 217 254 239 258 249 245 242 241 224 234 247 255 261 250 251 265 282 290 297 300 304 295 317 313 302 254 218 222 189
345 336 51 358 331 333 345 351 349 301 315 278 245 264 249 219 234 217 240 237 238 241 240 233 234 243 255 256 253 254 244 243 270 295 296 302 313 306 310 313 311 235 235 210